Regional Weather Roundup
Issued by NWS

Home | Current Version | Previous Version | Graphics & Text | Print | Product List | Glossary On
Versions: 1 2 3 4 5 6 7 8 9 10 11 12 13 14 15 16 17 18 19 20 21 22 23 24 25 26 27 28 29 30 31 32 33 34 35 36 37 38 39 40 41 42 43 44 45 46 47 48 49 50
000
ASUS43 KOAX 050302
RWRNE

WEATHER ROUNDUP FOR NEBRASKA
NATIONAL WEATHER SERVICE OMAHA NE
1000 PM CDT MON MAY 04 2015

NOTES: SATELLITE DATA IS BEING USED TO AUGMENT CLOUD COVER ABOVE
       12000 FEET.
       "FAIR" INDICATES FEW OR NO CLOUDS BELOW 12,000 FEET WITH NO
       SIGNIFICANT WEATHER AND/OR OBSTRUCTIONS TO VISIBILITY.

  * THESE STATIONS DO NOT REPORT WEATHER SUCH AS RAIN...SNOW OR FOG.

NEZ001>004-019>022-054>056-050400-
NEBRASKA PANHANDLE

CITY           SKY/WX    TMP DP  RH WIND       PRES   REMARKS
SCOTTSBLUFF    CLEAR     51  38  60 SE13      30.10R
ALLIANCE       PTCLDY    47  35  63 SE9       30.11R
CHADRON        PTCLDY    46  43  89 CALM      30.09F
KIMBALL        CLOUDY    47  44  90 SE13      30.10R
SIDNEY         CLOUDY    47  40  76 SE9       30.13S
$$

NEZ057>060-069>072-079>082-050400-
SOUTHWEST NEBRASKA

CITY           SKY/WX    TMP DP  RH WIND       PRES   REMARKS
NORTH PLATTE   CLOUDY    51  47  86 NE9       30.10R
IMPERIAL       CLOUDY    49  45  86 E7        30.11R
LEXINGTON      CLOUDY    53  51  94 E9        30.12R FOG
MCCOOK         CLOUDY    54  50  86 NE14      30.10R
OGALLALA       CLOUDY    49  46  87 NE3       30.11S
$$

NEZ005>010-023>029-035>040-094-050400-
NORTH CENTRAL NEBRASKA

CITY           SKY/WX    TMP DP  RH WIND       PRES   REMARKS
VALENTINE      MOCLDY    55  34  45 S8        30.12R
AINSWORTH      CLOUDY    55  36  48 SE5       30.12R
BROKEN BOW     CLOUDY    54  49  83 NE5       30.12R
O`NEILL        CLOUDY    58  45  63 SE5       30.11S
ORD            CLOUDY    54  48  80 E9        30.10R
THEDFORD       CLOUDY    56  40  54 CALM      30.14R
$$

NEZ041-046>049-061>064-073>077-083>087-050400-
SOUTH CENTRAL NEBRASKA

CITY           SKY/WX    TMP DP  RH WIND       PRES   REMARKS
GRAND ISLAND   CLOUDY    54  53  97 NE7       30.11R FOG
AURORA         CLOUDY    56  56 100 NE6       30.10R FOG
HASTINGS       CLOUDY    56  53  90 E7        30.09R
HEBRON         RAIN      60  58  91 CALM      30.07R
HOLDREGE       CLOUDY    54  52  92 E8        30.09S FOG
KEARNEY *      CLOUDY    54  50  87 E12       30.11R
$$

NEZ011>018-030>034-042>045-050400-
NORTHEAST NEBRASKA

CITY           SKY/WX    TMP DP  RH WIND       PRES   REMARKS
NORFOLK        CLOUDY    56  51  84 E6        30.10R
ALBION         CLOUDY    55  50  85 E8        30.11R
BLAIR          CLOUDY    57  54  91 NE12      30.07R
COLUMBUS *     CLOUDY    55  48  76 NE10      30.10R
FREMONT        CLOUDY    58  56  92 E6        30.07R FOG
TEKAMAH        CLOUDY    58  55  90 N5        30.07S
WAYNE          CLOUDY    55  50  84 E6        30.11R
$$

NEZ050>053-065>068-078-088>093-050400-
SOUTHEAST NEBRASKA

CITY           SKY/WX    TMP DP  RH WIND       PRES   REMARKS
LINCOLN        CLOUDY    60  57  89 E8        30.07R FOG
OMAHA EPPLEY   CLOUDY    60  56  86 E10       30.07R
BEATRICE       CLOUDY    62  61  96 E6        30.04R FOG
FALLS CITY     LGT RAIN  64  61  90 S14       30.06R
NEBRASKA CITY  LGT RAIN  63  63 100 E7        30.05R
PLATTSMOUTH    CLOUDY    62  60  91 NE9       30.05R FOG
$$

NEZ044-045-051>053-067-050400-
OMAHA AREA

CITY           SKY/WX    TMP DP  RH WIND       PRES   REMARKS
OMAHA EPPLEY   CLOUDY    60  56  86 E10       30.07R
BLAIR          CLOUDY    57  54  91 NE12      30.07R
FREMONT        CLOUDY    58  56  92 E6        30.07R FOG
MILLARD        CLOUDY    60  56  89 CALM      30.06R
OFFUTT AFB     CLOUDY    60  57  88 NE13      30.06R
PLATTSMOUTH    CLOUDY    62  60  91 NE9       30.05R FOG
$$



USA.gov is the U.S. government's official web portal to all federal, state and local government web resources and services.